Total_Precipitation_Accumulation
0.00 0.01 0.04 0.05 0.05 0.09 0.09 0.10 0.14 0.14 0.13 0.16 0.24 0.46 0.69 0.79 0.98 1.11 0.99 0.92 0.98 1.00 1.14 1.39 1.61 1.83 2.09 2.26 2.35 2.53 2.81 3.12 3.31 3.62 3.93 4.10 4.17 4.36 4.47 4.52 4.59 4.58 4.58 4.69
0.00 0.01 0.01 0.02 0.02 0.03 0.05 0.09 0.13 0.13 0.14 0.16 0.29 0.48 0.70 0.80 0.91 1.06 1.07 1.03 1.01 1.07 1.17 1.50 1.85 2.29 2.51 2.59 2.61 2.82 3.09 3.34 3.53 3.90 4.37 4.77 4.93 5.02 5.05 5.06 5.25 5.37 5.39 5.55
0.02 0.01 0.01 0.01 0.01 0.02 0.04 0.08 0.10 0.14 0.16 0.23 0.38 0.70 0.91 0.93 1.06 1.15 1.16 1.26 1.20 1.23 1.43 1.69 2.01 2.27 2.45 2.54 2.65 2.85 3.25 3.64 4.06 4.54 5.03 5.43 5.70 5.73 5.65 5.38 5.53 5.69 5.63 5.70
0.02 0.01 0.01 0.02 0.02 0.03 0.05 0.06 0.07 0.11 0.17 0.27 0.36 0.83 1.22 1.26 1.32 1.25 1.25 1.35 1.27 1.28 1.46 1.70 1.93 2.18 2.29 2.45 2.70 2.90 3.26 3.87 4.33 4.72 5.37 5.90 6.19 6.40 6.51 6.32 6.03 5.83 5.62 5.51
0.02 0.01 0.03 0.03 0.03 0.03 0.04 0.04 0.07 0.09 0.12 0.23 0.26 0.62 1.31 1.46 1.54 1.44 1.41 1.46 1.27 1.18 1.34 1.60 1.69 1.91 2.20 2.32 2.46 2.68 3.17 3.77 4.46 5.10 5.65 6.15 6.58 6.80 6.76 6.36 5.96 5.46 5.08 4.67
0.02 0.02 0.02 0.02 0.02 0.02 0.03 0.05 0.09 0.11 0.17 0.32 0.30 0.53 1.29 1.69 1.87 1.94 1.66 1.43 1.27 1.17 1.22 1.30 1.38 1.53 1.86 1.98 2.20 2.45 2.84 3.55 4.30 4.93 5.53 5.97 6.34 6.41 6.10 5.58 5.08 4.75 4.35 3.89
0.06 0.04 0.03 0.02 0.02 0.03 0.04 0.11 0.30 0.45 0.51 0.51 0.40 0.64 1.37 1.61 1.55 1.54 1.60 1.61 1.43 1.15 1.08 1.17 1.21 1.33 1.54 1.71 2.00 2.37 2.85 3.40 3.84 4.38 4.88 5.19 5.43 5.51 5.43 5.10 4.67 4.37 3.94 3.51
0.15 0.14 0.06 0.02 0.04 0.05 0.05 0.14 0.44 0.63 0.68 0.71 0.74 1.10 1.67 1.52 1.26 1.23 1.35 1.42 1.29 1.18 1.14 1.30 1.40 1.49 1.60 1.72 1.89 2.26 2.72 3.12 3.30 3.54 3.95 4.22 4.36 4.43 4.32 4.08 3.73 3.45 3.17 2.91
0.19 0.19 0.07 0.03 0.03 0.04 0.07 0.12 0.20 0.29 0.38 0.66 1.05 1.52 2.07 1.98 1.48 1.27 1.29 1.24 1.18 1.17 1.16 1.33 1.48 1.59 1.69 1.74 1.90 2.03 2.29 2.50 2.69 2.89 3.06 3.19 3.24 3.18 3.08 2.87 2.62 2.42 2.23 2.02
0.19 0.18 0.11 0.06 0.06 0.08 0.10 0.14 0.17 0.31 0.58 0.92 1.20 1.77 2.51 2.50 1.93 1.51 1.43 1.37 1.24 1.16 1.19 1.30 1.37 1.49 1.56 1.52 1.60 1.69 1.88 1.98 2.10 2.23 2.29 2.18 2.19 2.17 2.03 1.86 1.77 1.62 1.45 1.34
0.26 0.26 0.16 0.10 0.12 0.15 0.13 0.16 0.25 0.35 0.45 0.92 1.42 2.14 2.43 2.59 2.37 1.97 1.58 1.35 1.25 1.19 1.15 1.16 1.19 1.24 1.29 1.23 1.25 1.32 1.47 1.67 1.75 1.74 1.77 1.68 1.61 1.49 1.40 1.30 1.26 1.18 1.11 1.08
0.24 0.32 0.31 0.18 0.15 0.12 0.14 0.18 0.29 0.53 0.56 0.68 1.19 2.26 2.43 2.71 2.59 2.23 1.84 1.52 1.38 1.30 1.17 1.09 1.05 1.02 1.03 1.00 1.00 1.08 1.16 1.26 1.30 1.33 1.31 1.28 1.23 1.14 1.10 1.07 1.03 1.04 1.01 0.96
0.19 0.40 0.63 0.66 0.54 0.26 0.16 0.18 0.22 0.33 0.52 0.76 1.23 2.25 2.45 2.39 2.28 2.21 2.00 1.71 1.49 1.37 1.20 1.15 1.08 1.01 1.01 1.04 1.01 0.97 1.00 1.05 1.08 1.12 1.11 1.06 1.10 1.07 1.04 1.06 1.06 1.05 1.00 0.96
0.13 0.40 0.80 1.13 1.06 0.54 0.36 0.27 0.26 0.36 0.69 0.82 1.11 1.74 2.05 2.06 2.09 2.18 2.19 1.84 1.44 1.27 1.15 1.18 1.21 1.17 1.10 1.07 1.07 1.03 0.98 0.99 1.08 1.06 1.02 0.94 0.91 0.93 0.96 0.97 0.99 0.96 0.92 0.91
0.20 0.46 0.45 0.42 0.42 0.40 0.40 0.35 0.34 0.39 0.46 0.78 1.14 1.57 1.98 2.11 2.06 2.01 1.91 1.70 1.40 1.30 1.33 1.26 1.21 1.21 1.14 1.10 1.09 1.02 1.01 1.01 1.19 1.18 1.12 1.03 0.93 0.91 0.93 0.93 0.91 0.87 0.82 0.76
0.24 0.45 0.41 0.38 0.30 0.35 0.40 0.41 0.45 0.51 0.56 0.77 1.24 1.82 2.16 2.21 2.09 2.05 1.99 1.82 1.71 1.62 1.54 1.47 1.37 1.35 1.33 1.26 1.22 1.12 1.11 1.13 1.21 1.27 1.32 1.32 1.24 1.17 1.13 1.04 0.93 0.90 0.87 0.79
0.25 0.45 0.61 0.62 0.35 0.50 0.86 0.69 0.65 0.73 0.80 1.00 1.55 1.87 1.85 1.94 2.06 2.19 2.26 2.13 1.98 1.86 1.75 1.69 1.63 1.56 1.50 1.43 1.40 1.35 1.28 1.25 1.26 1.33 1.35 1.31 1.30 1.28 1.23 1.08 0.97 0.94 0.91 0.87
0.27 0.48 0.64 0.69 0.74 1.28 1.18 0.66 0.68 0.86 0.96 1.02 1.24 1.40 1.49 1.54 1.67 1.78 1.91 1.99 1.97 1.79 1.69 1.67 1.68 1.66 1.64 1.52 1.45 1.41 1.35 1.32 1.33 1.35 1.34 1.30 1.19 1.16 1.08 1.01 0.99 0.95 0.88 0.85
0.18 0.40 0.68 0.79 1.07 1.27 1.12 0.65 0.64 1.05 1.55 1.23 1.16 1.09 1.03 1.02 1.18 1.54 1.73 1.79 1.93 1.93 1.81 1.74 1.67 1.60 1.57 1.50 1.43 1.40 1.38 1.37 1.37 1.34 1.25 1.18 1.09 1.04 0.97 0.94 0.88 0.81 0.74 0.71
0.20 0.32 0.67 0.87 1.25 1.55 1.43 0.65 0.46 0.89 1.93 1.48 1.25 1.10 1.01 1.14 1.41 1.50 1.48 1.49 1.56 1.65 1.68 1.55 1.39 1.31 1.34 1.37 1.36 1.33 1.34 1.32 1.29 1.11 0.94 0.88 0.90 0.88 0.84 0.78 0.71 0.67 0.66 0.65
0.56 0.61 0.77 0.96 1.33 1.55 0.83 0.43 0.59 1.46 1.90 1.47 1.23 1.09 1.04 1.26 1.36 1.18 1.13 1.20 1.22 1.26 1.25 1.16 1.09 1.15 1.22 1.23 1.19 1.17 1.13 1.11 1.05 0.94 0.81 0.77 0.76 0.70 0.67 0.65 0.65 0.61 0.57 0.60
0.70 0.84 0.90 1.05 1.43 1.57 0.66 0.51 0.91 1.16 0.98 0.99 0.98 0.92 0.88 0.85 0.77 0.82 0.88 0.92 0.89 0.89 0.92 0.87 0.88 0.95 1.00 0.97 0.97 1.04 1.03 0.93 0.87 0.89 0.83 0.77 0.68 0.56 0.56 0.65 0.63 0.60 0.62 0.66
0.63 0.75 0.86 1.03 1.26 1.03 0.58 0.54 0.63 0.67 0.74 0.72 0.71 0.67 0.58 0.53 0.51 0.61 0.62 0.61 0.60 0.62 0.68 0.71 0.72 0.76 0.85 0.85 0.87 0.93 0.94 0.83 0.81 0.88 0.86 0.74 0.60 0.61 0.60 0.64 0.61 0.54 0.53 0.50
0.64 0.49 0.57 0.72 0.81 0.65 0.54 0.51 0.48 0.45 0.48 0.46 0.48 0.50 0.42 0.41 0.46 0.52 0.52 0.50 0.46 0.48 0.51 0.58 0.61 0.61 0.69 0.71 0.76 0.81 0.75 0.72 0.85 0.95 0.88 0.71 0.59 0.56 0.54 0.52 0.47 0.41 0.41 0.40
0.65 0.56 0.58 0.72 0.75 0.71 0.69 0.48 0.39 0.33 0.31 0.31 0.35 0.38 0.36 0.35 0.41 0.42 0.43 0.43 0.44 0.46 0.48 0.52 0.56 0.55 0.53 0.56 0.63 0.61 0.61 0.71 0.93 0.92 0.78 0.65 0.53 0.47 0.44 0.36 0.29 0.25 0.22 0.20
0.42 0.51 0.59 0.67 0.60 0.70 0.75 0.54 0.37 0.36 0.31 0.29 0.28 0.30 0.34 0.36 0.40 0.36 0.34 0.37 0.40 0.42 0.43 0.51 0.51 0.46 0.48 0.54 0.56 0.53 0.53 0.61 0.81 0.81 0.63 0.52 0.46 0.39 0.32 0.28 0.26 0.18 0.14 0.11